Fort Riley, KS

4:04 AM CST on December 09, 2016 (GMT -0600)
Marshall Army Air Field

Weather History for KFRI - May, 2014

Change the Weather History Date:

Monday, May 5, 2014

  Actual Average (KMHK) Record (KMHK)
Temperature  
Mean Temperature 64 °F -  
Max Temperature 79 °F 72 °F 90 °F (2012)
Min Temperature 50 °F 47 °F 37 °F (2005)
Degree Days  
Heating Degree Days 1    
Growing Degree Days 14 (Base 50)    
Moisture  
Dew Point 53 °F    
Average Humidity 77    
Maximum Humidity 100    
Minimum Humidity 41    
Precipitation  
Precipitation 0.00 in - - ()
Sea Level Pressure  
Sea Level Pressure 29.68 in    
Wind  
Wind Speed 6 mph (NE)    
Max Wind Speed 13 mph    
Max Gust Speed -    
Visibility 6 miles    
Events      
Averages and records for this station are not official NWS values.
T = Trace of Precipitation, MM = Missing Value Source: NWS Daily Summary

Daily Weather History Graph

Daily Weather History Graph

Search for Another Location

Airport or City:

Trip Planner

Search our weather history database for the weather conditions in past years. The results will help you decide how hot, cold, wet, or windy it might be!

Date:

Astronomy

May. 05, 2014 Rise Set
Actual Time 6:24 AM CDT 8:23 PM CDT
Civil Twilight 5:55 AM CDT 8:53 PM CDT
Nautical Twilight 5:19 AM CDT 9:28 PM CDT
Astronomical Twilight 4:41 AM CDT 10:07 PM CDT
Moon 11:44 AM CDT (5/5) 1:08 AM CDT (5/5)
Length of Visible Light 14h 58m
Length of Day
13h 59m
Waxing Crescent, 37% of the Moon is Illuminated
May 5
Waxing Crescent
May 6
First Quarter
May 14
Full
May 21
Last Quarter
May 28
New

Hourly Weather History & Observations

Time (CDT) Temp. Dew Point Humidity Pressure Visibility Wind Dir Wind Speed Gust Speed Precip Events Conditions
12:58 AM 60.8 °F 54.1 °F 79% 29.65 in 3.0 mi NE 3.5 mph - N/A   Haze
1:03 AM 60.8 °F 53.6 °F 77% 29.67 in 10.0 mi NE 3.5 mph - N/A   Clear
1:08 AM 59.0 °F 53.6 °F 82% 29.67 in 10.0 mi ENE 3.5 mph - N/A   Clear
1:13 AM 59.0 °F 55.4 °F 88% 29.67 in 2.5 mi NNE 5.8 mph - N/A   Haze
1:18 AM 59.0 °F 53.6 °F 82% 29.68 in 5.0 mi North 3.5 mph - N/A   Haze
1:33 AM 57.2 °F 53.6 °F 88% 29.68 in 2.5 mi North 4.6 mph - N/A   Clear
1:48 AM 59.0 °F 55.4 °F 88% 29.68 in 2.0 mi NNE 4.6 mph - N/A   Clear
1:58 AM 57.4 °F 54.9 °F 91% 29.66 in 2.5 mi NE 2.3 mph - N/A   Clear
2:03 AM 57.2 °F 55.4 °F 94% 29.68 in 3.0 mi NE 3.5 mph - N/A   Clear
2:08 AM 59.0 °F 53.6 °F 82% 29.67 in 2.0 mi NE 3.5 mph - N/A   Haze
2:28 AM 59.0 °F 53.6 °F 82% 29.67 in 2.5 mi NNE 3.5 mph - N/A   Haze
2:38 AM 57.2 °F 53.6 °F 88% 29.66 in 2.0 mi NE 3.5 mph - N/A   Clear
2:48 AM 57.2 °F 55.4 °F 94% 29.66 in 2.5 mi NE 3.5 mph - N/A   Clear
2:58 AM 57.0 °F 54.7 °F 92% 29.63 in 2.5 mi NE 2.3 mph - N/A   Clear
3:23 AM 55.4 °F 55.4 °F 100% 29.66 in 2.0 mi NNE 3.5 mph - N/A   Clear
3:33 AM 53.6 °F 53.6 °F 100% 29.66 in 1.8 mi NNE 4.6 mph - N/A   Clear
3:38 AM 53.6 °F 53.6 °F 100% 29.66 in 2.0 mi NNE 3.5 mph - N/A   Clear
3:54 AM 53.6 °F 53.6 °F 100% 29.66 in 10.0 mi NE 4.6 mph - N/A   Clear
3:55 AM 53.6 °F 53.6 °F 100% 29.63 in 10.0 mi NNE 5.8 mph - N/A   Clear
4:55 AM 51.8 °F 51.8 °F 100% 29.65 in 10.0 mi NNE 4.6 mph - N/A   Clear
5:55 AM 50.0 °F 50.0 °F 100% 29.67 in 10.0 mi NNE 5.8 mph - N/A   Clear
6:55 AM 51.8 °F 51.8 °F 100% 29.70 in 10.0 mi NNE 9.2 mph - N/A   Clear
7:48 AM 53.6 °F 51.8 °F 94% 29.73 in 1.8 mi NE 9.2 mph - N/A   Clear
7:53 AM 53.6 °F 51.8 °F 94% 29.72 in 0.8 mi NE 9.2 mph - N/A   Clear
7:58 AM 54.3 °F 50.9 °F 88% 29.70 in 0.8 mi NE 8.1 mph - N/A   Clear
8:03 AM 55.4 °F 51.8 °F 88% 29.73 in 10.0 mi NE 8.1 mph - N/A   Clear
8:58 AM 57.0 °F 49.5 °F 76% 29.71 in 10.0 mi NE 12.7 mph - N/A   Clear
9:58 AM 60.8 °F 49.6 °F 67% 29.71 in 10.0 mi NE 11.5 mph - N/A   Clear
10:58 AM 67.1 °F 51.3 °F 57% 29.72 in 10.0 mi NNE 9.2 mph - N/A   Partly Cloudy
11:58 AM 70.7 °F 52.5 °F 52% 29.72 in 10.0 mi NNE 11.5 mph - N/A   Partly Cloudy
12:58 PM 73.4 °F 51.8 °F 47% 29.72 in 10.0 mi NNE 9.2 mph - N/A   Clear
1:58 PM 76.3 °F 53.2 °F 45% 29.71 in 10.0 mi NNE 11.5 mph - N/A   Clear
2:58 PM 78.1 °F 52.5 °F 41% 29.70 in 10.0 mi NE 10.4 mph - N/A   Clear
3:58 PM 78.8 °F 55.4 °F 44% 29.68 in 7.0 mi NE 12.7 mph - N/A   Clear
4:58 PM 78.8 °F 53.6 °F 42% 29.67 in 10.0 mi NE 12.7 mph - N/A   Clear
5:58 PM 78.8 °F 53.6 °F 42% 29.66 in 10.0 mi NE 11.5 mph - N/A   Partly Cloudy
7:58 PM 73.4 °F 50.0 °F 44% 29.66 in 10.0 mi NE 11.5 mph - N/A   Clear
8:58 PM 68.0 °F 50.0 °F 52% 29.68 in 10.0 mi NNE 11.5 mph - N/A   Clear
9:58 PM 66.2 °F 48.2 °F 52% 29.69 in 10.0 mi NE 11.5 mph - N/A   Clear
10:58 PM 62.6 °F 50.0 °F 63% 29.69 in 10.0 mi North - - N/A   Clear
11:55 PM 61.9 °F 48.6 °F 62% 29.68 in 10.0 mi NE 9.2 mph - N/A   Clear